Location: Unspecified
(52.4292°N, 19.3359°E)
Time: 00:43:17
(UTC+02:00)

Altair - Pass Details

Date: 28 May 2024
Orbit: 1502 x 1682 km, 47.2° (Epoch: 19 June)

Event Time Altitude Azimuth Distance (km) Brightness Sun altitude
Rises 11:47:15 0° 258° (WSW) 4,832 10.0 57.5°
Reaches altitude 10° 11:50:21 10° 256° (WSW) 3,868 9.7 57.7°
Maximum altitude 12:00:09 66° 178° (S) 1,790 10.3 58.2°
Drops below altitude 10° 12:10:10 10° 99° (E) 3,946 10.0 58.6°
Sets 12:13:22 0° 97° (E) 4,933 10.3 58.7°
